Lancaster, CA

9:42 PM PDT on March 22, 2017 (GMT -0700)
Gen Fox

Weather History for KWJF - January, 2014

Change the Weather History Date:

Wednesday, January 29, 2014

  Actual Average Record
Temperature  
Mean Temperature 55 °F 46 °F  
Max Temperature 77 °F 60 °F 77 °F (2014)
Min Temperature 32 °F 32 °F 15 °F (1975)
Degree Days  
Heating Degree Days 10    
Month to date heating degree days 511  
Since 1 July heating degree days 1867  
Cooling Degree Days 0    
Month to date cooling degree days 0  
Year to date cooling degree days 0  
Growing Degree Days 4 (Base 50)    
Moisture  
Dew Point 32 °F    
Average Humidity 40    
Maximum Humidity 56    
Minimum Humidity 23    
Precipitation  
Precipitation 0.00 in 0.06 in 0.29 in (1980)
Month to date precipitation T 1.39  
Year to date precipitation T 1.39  
Since 1 July precipitation 1.61  
Snow  
Snow 0.00 in - 0.00 in ()
Month to date snowfall 0.0  
Since 1 July snowfall 0.0  
Snow Depth 0.00 in    
Sea Level Pressure  
Sea Level Pressure 30.06 in    
Wind  
Wind Speed 9 mph (WNW)    
Max Wind Speed 25 mph    
Max Gust Speed 31 mph    
Visibility 10 miles    
Events      
T = Trace of Precipitation, MM = Missing Value Source: NWS Daily Summary

Daily Weather History Graph

Daily Weather History Graph

Search for Another Location

Airport or City:

Trip Planner

Search our weather history database for the weather conditions in past years. The results will help you decide how hot, cold, wet, or windy it might be!

Date:

Astronomy

Jan. 29, 2014 Rise Set
Actual Time 6:53 AM PST 5:19 PM PST
Civil Twilight 6:26 AM PST 5:45 PM PST
Nautical Twilight 5:56 AM PST 6:16 PM PST
Astronomical Twilight 5:26 AM PST 6:46 PM PST
Moon 5:33 AM PST (1/29) 4:24 PM PST (1/29)
Length of Visible Light 11h 19m
Length of Day
10h 26m
Waning Crescent, 2% of the Moon is Illuminated
Jan 29
Waning Crescent
Jan 30
New
Feb 6
First Quarter
Feb 14
Full
Feb 22
Last Quarter

Hourly Weather History & Observations

Time (PST) Temp. Windchill Dew Point Humidity Pressure Visibility Wind Dir Wind Speed Gust Speed Precip Events Conditions
12:56 AM 44.1 °F 42.5 °F 23.0 °F 43% 30.16 in 10.0 mi West 3.5 mph - N/A   Clear
1:56 AM 39.9 °F - 23.0 °F 51% 30.16 in 10.0 mi Calm Calm - N/A   Clear
2:56 AM 37.0 °F - 21.0 °F 52% 30.16 in 10.0 mi Calm Calm - N/A   Clear
3:56 AM 36.0 °F 30.3 °F 21.9 °F 57% 30.16 in 10.0 mi NW 6.9 mph - N/A   Clear
4:56 AM 36.0 °F 33.3 °F 21.9 °F 57% 30.16 in 10.0 mi NNW 3.5 mph - N/A   Clear
5:56 AM 37.0 °F 33.3 °F 21.9 °F 54% 30.16 in 10.0 mi SSE 4.6 mph - N/A   Clear
6:56 AM 33.1 °F - 19.9 °F 59% 30.17 in 10.0 mi Calm Calm - N/A   Clear
7:56 AM 41.0 °F 39.0 °F 24.1 °F 51% 30.16 in 10.0 mi North 3.5 mph - N/A   Clear
8:56 AM 48.9 °F - 25.0 °F 39% 30.16 in 10.0 mi East 3.5 mph - N/A   Clear
9:56 AM 55.0 °F - 27.0 °F 34% 30.15 in 10.0 mi Calm Calm - N/A   Clear
10:56 AM 59.0 °F - 27.0 °F 29% 30.14 in 10.0 mi Calm Calm - N/A   Clear
11:56 AM 64.9 °F - 28.9 °F 26% 30.10 in 10.0 mi Calm Calm - N/A   Clear
12:56 PM 69.1 °F - 32.0 °F 25% 30.04 in 10.0 mi WSW 3.5 mph - N/A   Clear
1:56 PM 73.0 °F - 34.0 °F 24% 30.00 in 10.0 mi Calm Calm - N/A   Clear
2:28 PM 75.2 °F - 39.2 °F 27% 29.99 in 10.0 mi West 25.3 mph 31.1 mph N/A   Clear
2:56 PM 75.9 °F - 39.9 °F 27% 29.98 in 10.0 mi West 21.9 mph 28.8 mph N/A   Clear
3:56 PM 73.0 °F - 41.0 °F 31% 29.97 in 10.0 mi West 21.9 mph 29.9 mph N/A   Clear
4:56 PM 68.0 °F - 41.0 °F 37% 29.97 in 10.0 mi West 12.7 mph - N/A   Clear
5:56 PM 64.0 °F - 41.0 °F 43% 29.96 in 10.0 mi West 20.7 mph - N/A   Clear
6:56 PM 64.0 °F - 42.1 °F 45% 29.98 in 10.0 mi WNW 20.7 mph 29.9 mph N/A   Clear
7:56 PM 60.1 °F - 42.1 °F 51% 29.97 in 10.0 mi West 20.7 mph - N/A   Clear
8:56 PM 59.0 °F - 43.0 °F 55% 29.96 in 10.0 mi West 13.8 mph - N/A   Clear
9:56 PM 60.1 °F - 42.1 °F 51% 29.94 in 10.0 mi West 18.4 mph - N/A   Clear
10:56 PM 57.9 °F - 41.0 °F 53% 29.93 in 10.0 mi West 15.0 mph - N/A   Clear
11:56 PM 55.0 °F - 37.9 °F 53% 29.91 in 10.0 mi WNW 11.5 mph - N/A   Clear